Regional Weather Roundup
Issued by NWS Portland, ME

Home | Current Version | Previous Version | Text Only | Print | Product List | Glossary On
Versions: 1 2 3 4 5 6 7 8 9 10 11 12 13 14 15 16 17 18 19 20 21 22 23 24 25 26 27 28 29 30 31 32 33 34 35 36 37 38 39 40 41 42 43 44 45 46 47 48 49 50
000
ASUS41 KGYX 230110
RWRGYX
WEATHER ROUNDUP FOR MAINE AND NEW HAMPSHIRE
NATIONAL WEATHER SERVICE GRAY ME
900 PM EDT WED OCT 22 2014

MEZ002-005-006-010-012-015-018-020-021-024-026-027-029-230200-
MAINE

CITY           SKY/WX    TMP DP  RH WIND       PRES   REMARKS
PORTLAND       CLOUDY    50  46  86 NE20G33   30.02R
SANFORD        CLOUDY    46  41  81 NE22G30   29.99F
BAR HARBOR     CLOUDY    46  46 100 NE15G23   30.08F
WISCASSET      CLOUDY    49  45  86 NE10G20   30.06S
ROCKLAND       CLOUDY    48  45  87 NE21G38   30.02F
FRYEBURG       CLOUDY    47  43  86 NE9G18    30.08S
LEWISTONAUBURN CLOUDY    46  41  81 NE16G24   30.07R
AUGUSTA        CLOUDY    45  42  89 NE18G32   30.09F
WATERVILLE     CLOUDY    45  39  81 NE20G25   30.08F
BANGOR         LGT RAIN  46  43  89 NE16      30.14F FOG
GREENVILLE       N/A     44  37  76 NE12G18   30.17F
MILLINOCKET    LGT RAIN  44  41  89 NE9       30.24F
HOULTON        CLOUDY    43  40  89 NE10G18   30.26F
PRESQUE ISLE   CLOUDY    45  34  65 NE10      30.30F
FRENCHVILLE    CLOUDY    41  32  70 NE9       30.33S
CARIBOU        CLOUDY    46  35  65 NE10      30.30F
$$

NHZ002-005-008-009-011-012-014-230200-
NEW HAMPSHIRE

CITY           SKY/WX    TMP DP  RH WIND       PRES   REMARKS
PORTSMOUTH     LGT RAIN  49  46  92 NE18G29   29.94R FOG
ROCHESTER      LGT RAIN  47  45  93 NE17G30   29.97S FOG
NASHUA         LGT RAIN  48  47  97 NE13      29.95S FOG
MANCHESTER     CLOUDY    48  44  86 N15G29    29.94F FOG
CONCORD        CLOUDY    48  45  89 NE15G28   29.97S
LACONIA        CLOUDY    46  43  87 NE13G22   30.01R
PLYMOUTH       CLOUDY    50  48  93 CALM      30.02S
BERLIN         CLOUDY    46  43  89 NW10      30.09F
WHITEFIELD     CLOUDY    47  43  86 NE7       30.07F
JAFFREY        LGT RAIN  45  44  97 VRB6      29.94S FOG
LEBANON        CLOUDY    49  43  80 N12       30.01F
MT WASHINGTON  FRZ RAIN  32  32 100 E56G68      N/A  VSB 0   WCI  14
$$

VTZ005-007-008-230200-
VERMONT

CITY           SKY/WX    TMP DP  RH WIND       PRES   REMARKS
ST JOHNSBURY     N/A     50  42  74 MISG      30.07F
MONTPELIER     CLOUDY    48  42  80 N5        30.11F
BURLINGTON     CLOUDY    51  40  65 N10       30.11F
$$

MAZ007-012-024-CTZ003-RIZ002-NYZ038-NYZ072-230200-
SOUTHERN NEW ENGLAND AND NY

CITY           SKY/WX    TMP DP  RH WIND       PRES   REMARKS
BOSTON         LGT RAIN  51  50  96 NE32G44   29.82F FOG
WORCESTER      LGT RAIN  45  44  97 NE23G35   29.82F FOG
NANTUCKET      CLOUDY    60  59  96 NE21G29   29.67R
PROVIDENCE     TSTM      53  51  93 NE21G36   29.77R FOG
HARTFORD       RAIN      50  46  86 N21G30    29.82F FOG
ALBANY         LGT RAIN  51  44  77 N12G23    29.98F
NEW YORK CITY  RAIN      53  49  86 N18G31    29.76F
$$

ANZ081-ANZ082-ANZ150-NHZ014-MEZ023>029-230200-
COASTAL MARINE OBSERVATIONS

STATION/POSITION TIME  TEMP    WIND        PRES    WAVE
                       AIR SEA DIR/SP/G            HT/PER
                 (UTC) (F)     (DEG/KT/KT) (MB)    (FT/S)
MOUNT DESERT ROC 0000   51                   N/A
MATINICUS ROCK   0100           50/ 39/ 48 1014.5F
PORTLAND WX BUOY 0050   51 54   40/ 27/ 33 1014.3F  12/10
WELLS            0000   49 50   40/ 16/ 27 1014.5F
ISLE OF SHOALS   0100   51      40/ 36/ 43 1011.6S
JEFFREYS LEDGE   0021      55                N/A    23/11
CASHES LEDGE BUO 0050   53 54   40/ 33/ 41 1010.8F  19/11
$$

.............KEY..............
   WCI - WIND CHILL
   TC  - TEMPERATURE IN CELSIUS
   VSB - VISIBILITY IN MILES
   HX  - HEAT INDEX
   FAIR- INDICATES FEW OR NO CLOUDS BELOW 12,000 FT, WITH NO
         SIGNIFICANT WEATHER AND/OR OBSTRUCTIONS TO VISIBILITY.





USA.gov is the U.S. government's official web portal to all federal, state and local government web resources and services.